Wind_Speed
9 8 7 8 7 7 7 7 7 8 7 6 6 6 5 5 6 7 7 7 7 7 6 6 5 4 4 3 3 3 3 3 3 3 2 2 2 1 1 1 1 1 1
9 9 9 8 8 8 8 8 8 8 8 8 7 7 6 6 6 7 7 8 8 8 7 7 6 5 4 4 4 3 3 3 4 4 3 3 3 2 2 2 2 2 2
10 10 9 9 9 9 8 8 9 9 9 8 8 8 7 7 6 7 8 9 9 9 9 9 8 7 6 5 4 4 4 4 4 4 3 3 4 4 3 3 3 3 3
11 10 9 9 10 9 9 9 10 9 9 8 8 7 7 7 7 8 9 10 10 10 10 10 9 8 7 6 5 5 5 5 5 5 4 4 4 5 5 5 4 4 4
12 11 9 9 9 10 10 10 10 10 9 9 8 8 7 7 8 9 9 10 10 11 11 10 10 9 8 8 7 6 6 6 6 6 6 5 5 6 6 6 5 5 5
12 11 9 8 9 10 9 9 10 9 9 9 9 8 8 7 7 8 9 10 10 11 11 11 10 10 9 8 8 7 7 7 7 8 8 7 7 6 7 7 7 7 7
12 11 10 9 9 9 9 9 9 9 9 9 9 8 8 8 8 8 9 10 11 11 11 12 12 11 11 10 9 9 8 8 8 8 9 8 8 8 8 8 8 8 8
12 10 10 10 10 9 9 9 9 10 9 9 9 8 9 9 9 10 10 10 12 12 12 13 13 12 12 12 11 10 10 9 10 10 10 10 10 9 9 10 9 9 9
12 10 11 11 10 10 10 9 9 9 9 9 8 8 8 8 9 11 11 11 12 12 12 13 13 14 14 14 13 13 12 12 11 11 11 11 11 11 10 11 11 11 11
12 11 12 12 11 11 10 10 9 9 9 8 8 7 8 8 8 9 11 11 12 12 13 13 14 14 15 14 14 14 13 12 12 12 12 13 13 13 12 12 12 12 12
12 12 13 12 11 11 10 10 10 9 9 8 8 8 8 9 9 10 11 12 13 13 13 14 14 15 15 15 15 14 15 14 14 13 14 14 14 14 14 14 14 14 14
12 12 12 12 11 12 11 11 11 10 10 10 10 10 9 9 9 10 11 12 12 13 14 14 14 15 17 16 16 16 16 16 16 15 15 15 15 15 15 15 16 16 16
12 12 11 12 12 12 13 13 13 12 11 12 12 11 12 11 10 11 12 13 13 13 13 14 15 15 16 17 17 17 17 18 17 17 16 16 16 16 16 16 17 17 17
13 13 12 12 12 13 14 13 13 13 13 13 13 13 13 12 12 12 12 13 14 14 14 15 16 16 16 17 17 17 18 18 18 18 18 17 18 18 18 17 18 18 18
14 13 12 12 13 13 14 13 13 14 14 14 14 13 14 14 13 13 14 14 14 14 14 15 16 16 17 17 18 18 18 18 18 19 19 19 19 19 19 19 19 20 20
14 13 13 13 14 14 13 13 14 14 14 14 14 14 14 14 14 15 16 16 16 16 16 15 16 16 17 17 17 18 19 19 19 20 20 20 21 21 21 20 20 20 20
14 14 14 14 14 14 13 14 14 14 14 15 15 15 15 15 15 15 16 17 17 18 17 16 16 17 17 18 19 19 18 18 19 21 21 21 21 21 21 22 22 22 21
15 16 16 15 15 15 15 15 15 15 15 15 14 14 14 14 14 15 15 16 16 16 16 17 18 18 18 18 19 18 18 18 19 20 20 20 20 21 22 23 23 23 23
17 17 17 17 17 17 16 16 16 15 16 15 14 14 14 14 14 14 14 15 16 16 16 16 17 18 18 18 19 19 19 18 19 19 19 20 21 21 22 22 23 23 24
19 18 18 18 17 17 17 17 17 17 16 15 14 14 15 14 14 13 14 15 16 16 16 17 17 17 17 17 18 19 19 19 19 19 19 20 21 22 22 22 23 24 25
18 17 17 17 17 17 17 17 16 16 16 16 15 15 15 14 14 14 15 15 15 15 15 16 17 17 17 17 18 18 19 19 19 19 19 20 21 22 23 24 24 25 26
18 18 17 17 17 17 17 17 17 17 17 16 16 15 15 15 15 15 15 15 16 16 15 16 17 17 17 17 17 17 18 18 18 18 19 20 21 21 23 24 25 26 27
19 18 18 18 18 18 18 18 17 17 17 16 16 15 15 15 15 14 15 15 15 15 16 16 17 18 18 18 18 19 19 20 20 20 21 22 23 24 25 26 27 28 28
20 19 19 19 19 19 18 17 17 17 16 15 15 15 15 14 14 14 14 14 15 15 15 16 17 17 17 18 18 19 20 21 22 23 23 24 25 26 27 27 28 29 30
20 19 20 19 19 19 19 18 18 17 16 16 16 15 15 15 15 15 15 15 15 16 16 16 16 16 17 18 19 20 22 23 23 24 25 26 27 27 28 29 30 31 32
23 21 20 19 19 19 19 19 19 19 18 18 17 16 16 16 16 16 16 17 17 17 18 18 18 18 19 20 21 22 22 23 24 25 26 27 28 29 30 31 32 32 34
Wind_Direction
304 300 297 291 288 293 297 298 300 298 298 296 291 286 269 269 264 248 240 241 239 235 234 237 245 252 257 264 274 275 267 248 238 233 236 259 261 260 210 202 202 210 206
305 306 294 286 284 284 288 292 295 295 297 298 295 287 272 264 260 245 249 244 237 234 233 233 239 245 250 259 265 263 258 245 238 233 233 242 245 237 225 220 215 221 229
296 298 294 285 281 281 284 286 293 296 293 293 294 293 272 257 258 247 248 243 236 234 234 234 233 238 245 251 253 250 248 242 235 232 239 244 245 232 230 231 232 232 238
284 284 286 284 283 282 281 281 288 293 285 284 286 283 266 256 255 247 241 239 236 232 232 234 233 235 239 243 249 250 243 240 236 236 239 244 248 236 235 237 238 236 243
277 277 276 278 283 282 280 277 282 287 282 279 278 269 259 259 253 240 236 239 237 234 233 233 228 230 235 239 244 249 245 245 243 242 243 242 245 241 238 240 240 236 240
268 269 271 273 282 282 280 280 285 285 281 277 274 262 256 255 243 234 233 235 237 235 232 230 228 230 234 237 241 246 248 248 247 247 246 246 246 243 237 239 241 240 241
264 265 271 273 281 283 280 281 284 282 277 271 265 258 257 251 239 231 230 234 238 233 230 232 232 232 234 239 244 247 249 249 250 250 249 249 248 246 240 237 239 243 244
256 259 267 269 272 276 277 281 281 278 275 270 266 264 263 254 241 235 235 239 238 234 233 233 234 234 235 240 243 246 249 250 252 251 252 253 247 247 243 241 243 245 245
252 249 255 260 263 268 272 277 277 274 274 269 267 270 267 257 243 241 239 237 233 233 233 234 238 237 238 243 244 245 248 251 253 252 252 253 248 248 247 245 245 247 248
250 248 251 254 258 264 268 274 273 269 271 269 274 272 264 256 247 246 239 236 233 237 240 240 240 240 240 244 246 244 246 250 253 252 253 253 251 250 251 250 248 249 254
250 253 253 251 253 261 264 270 271 265 264 266 271 275 269 262 250 244 241 239 238 239 243 242 240 240 240 243 246 246 247 253 253 253 256 256 255 253 254 253 252 251 255
249 252 251 249 251 259 265 268 266 264 264 265 269 271 271 269 257 247 244 241 239 242 244 244 241 243 242 244 247 248 251 255 255 255 256 258 257 257 256 255 253 253 256
246 249 250 250 252 256 261 265 265 265 266 267 268 268 269 268 261 252 248 247 244 243 243 242 245 248 247 247 249 252 254 255 253 254 256 258 259 259 259 258 256 256 258
249 251 252 255 256 260 258 261 264 265 265 265 267 267 268 267 262 253 251 250 246 245 246 244 247 250 251 250 251 256 256 254 253 254 255 257 258 258 260 260 259 257 258
250 255 258 259 260 261 256 259 263 265 264 263 264 266 267 266 261 253 250 248 246 246 248 249 250 252 253 253 255 257 258 258 257 256 256 257 257 258 259 260 262 260 259
251 257 258 259 259 260 260 262 265 267 264 261 262 262 264 264 261 253 249 247 245 247 249 250 252 253 253 254 258 261 260 260 259 257 258 258 258 258 259 261 264 264 262
256 259 258 258 256 258 260 262 265 266 265 265 264 263 264 260 257 257 252 248 249 250 249 251 252 255 258 259 259 262 263 264 263 261 260 258 257 258 260 264 266 266 266
259 260 257 256 255 256 260 264 265 265 263 263 265 264 261 257 254 257 256 251 249 250 251 252 254 256 259 261 263 262 264 266 267 263 260 258 258 261 263 264 266 266 268
257 260 256 255 256 257 259 263 265 269 266 262 263 262 259 259 261 263 258 253 252 254 253 254 256 258 260 262 263 264 265 265 267 265 261 260 259 261 263 264 266 268 270
252 252 251 252 254 257 260 264 266 268 267 261 259 258 257 255 259 262 261 255 253 253 255 253 254 258 262 265 267 266 267 267 267 264 263 264 264 263 264 266 268 270 272
251 250 252 254 256 258 261 264 263 265 266 262 260 257 256 256 258 261 260 258 257 257 257 255 256 260 264 267 270 269 269 271 269 267 265 266 267 266 267 268 270 272 274
251 252 253 256 258 260 262 263 262 262 263 261 259 257 256 259 261 263 264 261 259 259 259 261 261 264 266 267 269 269 270 271 270 269 269 269 270 272 274 273 274 275 276
253 254 253 254 257 260 263 262 260 258 258 257 257 257 257 259 262 264 265 264 260 260 263 264 266 267 268 269 269 269 269 269 271 270 270 271 273 274 276 275 275 276 278
252 256 257 255 256 258 260 261 257 256 257 259 259 260 259 261 262 264 266 266 265 266 268 266 267 269 270 271 272 271 271 271 272 271 271 272 274 276 277 278 279 279 280
253 254 256 255 255 256 258 257 257 254 254 257 260 262 261 261 261 263 266 267 269 267 268 269 268 271 271 272 274 275 275 275 274 274 273 274 275 277 278 279 280 281 282
250 252 253 255 256 256 255 254 256 252 253 254 257 258 260 261 262 264 265 266 268 268 269 271 272 275 276 275 277 279 278 279 279 278 278 279 279 280 281 281 282 283 283
Height
5893 5893 5893 5893 5893 5892 5892 5892 5891 5891 5891 5890 5890 5890 5890 5890 5890 5891 5892 5893 5894 5895 5896 5896 5897 5898 5898 5898 5899 5899 5899 5898 5898 5899 5899 5898 5898 5898 5897 5897 5896 5896 5896
5891 5891 5891 5891 5891 5890 5890 5890 5889 5889 5888 5888 5888 5887 5887 5887 5888 5889 5890 5891 5892 5893 5893 5895 5895 5896 5896 5897 5897 5897 5898 5898 5898 5898 5898 5898 5898 5897 5897 5897 5897 5896 5896
5889 5889 5889 5889 5889 5889 5888 5887 5887 5886 5886 5886 5886 5885 5885 5885 5886 5887 5888 5889 5890 5891 5891 5892 5894 5894 5895 5895 5896 5896 5896 5897 5897 5897 5897 5897 5897 5897 5897 5897 5896 5896 5896
5887 5887 5887 5887 5887 5886 5886 5885 5885 5884 5883 5883 5883 5883 5883 5883 5884 5884 5885 5886 5887 5888 5889 5890 5891 5892 5893 5894 5894 5895 5895 5895 5895 5896 5896 5896 5896 5896 5896 5896 5896 5895 5895
5884 5884 5884 5884 5884 5884 5883 5883 5882 5881 5881 5880 5880 5880 5880 5881 5881 5882 5883 5884 5885 5886 5887 5888 5889 5890 5891 5891 5892 5893 5893 5894 5894 5894 5894 5894 5895 5895 5895 5895 5895 5895 5894
5881 5881 5881 5882 5882 5881 5881 5880 5880 5879 5878 5878 5877 5877 5878 5878 5878 5879 5880 5881 5882 5883 5885 5886 5887 5888 5889 5889 5890 5891 5891 5892 5892 5892 5893 5893 5893 5893 5893 5893 5893 5893 5893
5876 5877 5878 5879 5879 5878 5877 5877 5877 5876 5875 5875 5875 5875 5875 5875 5876 5877 5878 5879 5880 5881 5882 5883 5884 5885 5886 5887 5888 5888 5889 5889 5890 5890 5890 5890 5891 5891 5891 5891 5891 5891 5892
5872 5873 5875 5875 5876 5876 5875 5875 5874 5873 5873 5872 5872 5872 5872 5872 5873 5874 5875 5876 5877 5878 5879 5880 5881 5882 5883 5884 5885 5886 5886 5887 5887 5887 5888 5888 5888 5888 5889 5889 5889 5889 5890
5869 5871 5872 5872 5873 5873 5872 5872 5872 5871 5870 5870 5870 5869 5869 5870 5870 5870 5871 5873 5874 5875 5876 5877 5878 5879 5880 5880 5881 5882 5883 5884 5884 5884 5885 5885 5885 5885 5886 5886 5887 5887 5887
5865 5867 5868 5869 5869 5870 5870 5869 5869 5868 5868 5867 5867 5867 5867 5867 5867 5868 5869 5870 5871 5872 5873 5874 5875 5875 5876 5877 5878 5879 5880 5880 5881 5881 5881 5881 5882 5882 5882 5883 5883 5884 5884
5861 5863 5864 5865 5866 5866 5866 5866 5866 5866 5865 5865 5865 5865 5865 5865 5864 5865 5866 5867 5868 5869 5870 5870 5871 5872 5873 5874 5874 5875 5876 5877 5877 5877 5878 5878 5878 5879 5879 5879 5880 5880 5880
5857 5859 5861 5861 5862 5863 5863 5863 5863 5863 5863 5863 5862 5862 5862 5862 5861 5862 5863 5863 5864 5865 5866 5867 5868 5869 5869 5870 5871 5871 5872 5873 5873 5874 5874 5874 5874 5875 5875 5875 5876 5876 5876
5853 5855 5857 5858 5858 5859 5860 5860 5860 5860 5860 5860 5860 5859 5859 5859 5859 5859 5859 5860 5861 5862 5862 5864 5864 5865 5866 5866 5867 5867 5868 5868 5869 5869 5870 5870 5870 5871 5870 5871 5871 5871 5871
5849 5851 5852 5853 5854 5855 5856 5856 5856 5856 5856 5856 5856 5856 5856 5855 5855 5855 5856 5856 5857 5858 5859 5859 5860 5861 5861 5862 5863 5863 5863 5864 5864 5865 5865 5865 5866 5866 5866 5866 5866 5866 5866
5846 5847 5848 5849 5851 5851 5852 5852 5852 5852 5852 5852 5852 5852 5851 5851 5851 5852 5852 5853 5853 5854 5855 5855 5856 5856 5857 5858 5858 5859 5859 5859 5859 5860 5860 5860 5860 5861 5861 5861 5861 5861 5861
5842 5844 5844 5846 5847 5847 5848 5848 5848 5848 5848 5848 5848 5847 5847 5847 5847 5848 5848 5849 5849 5850 5851 5851 5852 5852 5853 5853 5854 5854 5854 5854 5854 5854 5854 5855 5855 5855 5855 5855 5856 5856 5856
5838 5839 5840 5842 5843 5843 5844 5844 5844 5844 5844 5844 5843 5843 5843 5843 5843 5844 5844 5844 5845 5846 5847 5847 5848 5848 5849 5849 5849 5849 5849 5849 5849 5849 5848 5848 5849 5850 5850 5850 5850 5850 5850
5833 5834 5836 5837 5838 5839 5839 5840 5839 5839 5839 5839 5839 5838 5838 5837 5838 5839 5839 5840 5840 5841 5842 5842 5842 5843 5844 5844 5844 5844 5844 5844 5843 5843 5842 5843 5843 5844 5844 5844 5844 5844 5844
5829 5830 5831 5832 5833 5834 5834 5834 5835 5835 5834 5834 5835 5835 5834 5834 5834 5834 5835 5835 5836 5837 5837 5838 5838 5839 5839 5839 5839 5839 5839 5838 5838 5837 5837 5837 5838 5838 5838 5838 5838 5838 5837
5823 5825 5826 5827 5828 5829 5829 5830 5830 5830 5830 5830 5830 5830 5831 5831 5831 5831 5831 5831 5831 5832 5832 5833 5834 5834 5835 5834 5834 5834 5834 5833 5833 5832 5832 5832 5832 5832 5831 5831 5831 5831 5830
5818 5820 5821 5822 5823 5824 5825 5825 5825 5826 5826 5826 5826 5826 5827 5827 5827 5827 5827 5827 5827 5828 5828 5829 5829 5830 5830 5830 5829 5829 5828 5828 5828 5827 5827 5826 5826 5826 5825 5825 5825 5824 5823
5813 5815 5816 5817 5818 5819 5820 5820 5821 5821 5821 5821 5821 5822 5822 5822 5822 5822 5822 5822 5823 5823 5824 5824 5824 5825 5825 5824 5824 5823 5823 5823 5822 5822 5821 5821 5820 5820 5819 5819 5818 5817 5816
5808 5809 5811 5812 5813 5814 5815 5815 5816 5816 5816 5817 5817 5817 5818 5818 5818 5818 5818 5818 5819 5819 5819 5819 5819 5819 5819 5819 5819 5818 5818 5817 5817 5816 5815 5815 5814 5813 5812 5811 5810 5809 5808
5803 5805 5805 5806 5808 5809 5810 5810 5811 5811 5812 5813 5813 5813 5814 5814 5814 5815 5815 5815 5815 5815 5815 5815 5815 5814 5814 5814 5813 5813 5812 5811 5810 5809 5809 5808 5807 5806 5805 5804 5803 5801 5800
5798 5799 5800 5801 5802 5804 5804 5805 5806 5807 5808 5808 5809 5809 5810 5810 5810 5810 5811 5811 5811 5810 5810 5810 5810 5809 5809 5808 5808 5806 5806 5805 5804 5802 5801 5801 5800 5798 5797 5796 5794 5793 5791
5792 5794 5795 5796 5797 5798 5799 5800 5800 5801 5802 5803 5804 5805 5805 5806 5806 5806 5806 5806 5806 5806 5806 5805 5805 5804 5804 5802 5802 5800 5799 5798 5797 5796 5794 5793 5792 5790 5789 5787 5785 5783 5781